Terug naar catalogus

INTELSAT 504

ActiefCommunicatieGEO
NORAD 13083·PAYLOAD· XX

Gelanceerd Mar 5, 1982 vanaf Cape Canaveral Space Force Station

Loading…

TLE

VersSource: Space-Track

Epoch: Sep 14, 2026, 13:13 UTC

1 13083U 82017A   26257.55119284 -.00000255  00000-0  00000-0 0  9993
2 13083  11.2510 327.0126 0016134 220.5512 169.2024  0.99229344142643

Volg INTELSAT 504 in realtime met AllMySat

Download on the App Store